Vertical_Velocity
-3 -1 2 4 5 2 1 -5 -9 -12 -6 16 -3 -1 5 14 -5 15 -4 -15 -2 -3 -2 2 1 0 -5 -5 -2 8 6 6 7 9 7 4 28 44
-2 -2 -3 -2 -1 -1 -3 -2 1 -3 -10 -1 2 -2 8 19 5 2 -1 16 2 6 1 1 1 8 -5 -6 -5 6 0 3 1 3 -8 -3 8 -4
-1 -1 -1 -0 0 0 -1 -3 -2 -3 -5 4 -2 -1 -5 9 10 13 4 15 6 0 11 8 3 20 18 9 -5 11 -2 4 4 2 8 2 2 12
1 0 -1 -0 -1 -1 -0 0 1 0 -5 -6 0 2 -4 -15 -12 2 11 4 4 16 -6 0 4 9 25 -2 6 7 -4 1 0 2 2 0 12 8
-1 -0 0 1 1 1 0 -1 -2 -2 -2 -5 -4 -2 -0 -3 3 -12 -9 10 8 2 12 9 -1 -4 23 17 5 -3 -7 -4 -2 -2 -2 -8 -3 1
0 -0 -1 -2 -2 -1 -0 -2 -1 1 1 1 -2 -3 -4 3 -3 -4 6 -10 6 6 5 6 10 2 1 -4 0 -0 8 2 -2 -0 -2 -4 -3 3
0 -0 -1 -1 -1 -2 -4 -2 -2 -2 -2 -1 -0 -2 -3 -2 -4 -1 -6 -0 6 -17 2 7 8 6 4 9 8 1 2 -0 2 -1 -3 -3 -3 -4
-3 -2 0 0 -1 -3 -2 -3 -3 -4 -1 -4 -2 -2 2 0 0 -4 -1 -4 -1 9 -7 3 -4 10 3 1 2 2 -0 0 12 1 -3 -6 -5 3
0 0 0 -1 -0 1 0 -0 -1 -2 -4 -6 -3 -0 -5 -0 -2 2 0 -1 -1 5 -6 6 -3 2 -1 6 3 2 5 5 6 2 -1 0 0 1
-1 -1 -2 -0 -1 -1 0 1 1 2 -1 -3 -4 -2 -3 -5 -2 -4 -1 -0 0 5 -8 -12 1 -1 2 -2 5 2 8 3 2 2 -3 -1 1 2
2 -1 -3 -0 -1 -3 -2 -3 -1 3 -1 -2 -3 -3 -3 -0 -5 -8 -2 -7 -2 1 5 1 -3 -1 2 5 -6 -13 -2 4 5 -2 -5 -0 -1 -0
1 -1 -2 -4 -2 -1 -4 -5 -4 1 -1 4 5 4 2 -3 1 -3 -5 -6 -3 -5 3 -2 -0 -5 -3 3 0 -0 -2 -9 7 5 -5 16 -1 13
2 3 2 0 -1 -1 -3 -5 -6 -6 -2 -3 -1 -0 -1 2 -1 -4 0 -3 0 -4 0 -4 4 1 -6 -9 4 3 -2 -2 -8 -0 -3 12 -2 4
-2 -0 -0 -1 -1 -2 -2 -2 -3 -5 -4 -5 -5 -3 -3 -1 1 -2 -2 -1 -3 -2 -3 -1 -6 -2 -1 -0 -11 11 1 2 0 -2 -13 3 18 6
-3 -1 0 -1 -2 -1 -1 -3 -2 -1 -3 -5 -5 -3 -1 -2 -1 -1 -0 -1 -3 1 -1 -3 -3 0 -1 -2 -2 -3 3 -1 5 3 7 -4 11 13
-2 0 -2 -2 -2 -4 -4 -3 -4 -4 -4 -2 -5 -3 -2 -0 -1 -1 -3 3 -5 1 4 -3 -3 -4 -1 -1 -4 -2 3 -3 1 6 3 -2 1 3
-4 -3 -1 -1 -1 -0 0 -2 -2 -1 -1 -2 -3 -5 -3 -2 1 1 -1 -1 -4 -4 -1 4 -1 -4 -3 1 -4 -3 -0 -1 6 4 1 4 8 -2
-1 -3 0 -1 -2 -2 -2 -1 0 -1 -1 -0 -1 -3 -4 -2 -1 3 -1 -3 -3 1 -2 2 2 -3 -1 1 -3 -2 -0 -1 4 2 -1 -2 -2 6
-1 -1 -1 -1 -0 -1 -2 -2 -2 0 -1 -1 -2 -1 -3 -1 -2 -1 0 -1 1 -1 1 -0 3 2 -0 -9 7 -6 -7 -0 -1 -2 0 -3 1 7
-4 -1 0 -2 -2 -2 -2 -3 -1 1 1 -0 -0 -1 -2 -3 -2 -0 -0 -1 -0 -1 -2 3 3 3 -3 -2 -5 2 -6 -1 0 2 1 2 1 4
0 -1 -4 -1 1 -0 -1 -0 -1 -0 0 1 2 -0 1 -2 -1 -1 -1 -1 -1 -2 -2 2 4 -2 0 -5 -9 4 2 -3 1 0 5 -0 -2 -4
-1 1 1 0 -0 -2 -1 -0 1 2 2 2 -0 -1 0 -1 -1 -1 -1 -4 -1 -3 -2 0 3 -1 1 -2 -4 0 0 2 -3 -2 -2 0 -3 -8
-1 -1 1 -0 -0 0 -0 -0 2 2 2 0 -2 -0 1 0 -1 -1 -1 -3 -2 1 0 2 1 -1 2 0 -1 -1 -3 -0 -1 -2 1 1 1 2
Height
3014 3012 3009 3006 3003 3000 2997 2993 2989 2983 2982 2988 2982 2984 2981 2980 2979 2980 2981 2982 2987 2989 2992 2994 2997 3000 3002 3005 3009 3012 3017 3021 3024 3028 3031 3035 3032 3039
3007 3005 3002 2999 2996 2993 2990 2987 2983 2977 2969 2977 2973 2971 2967 2965 2968 2966 2967 2964 2972 2976 2978 2980 2982 2985 2988 2990 2995 2998 3005 3009 3013 3018 3021 3024 3027 3032
2999 2996 2993 2989 2986 2982 2980 2977 2974 2969 2962 2967 2965 2963 2959 2952 2952 2953 2955 2956 2958 2961 2963 2964 2966 2966 2973 2977 2982 2985 2991 2996 3001 3005 3010 3014 3018 3020
2991 2988 2985 2981 2977 2974 2971 2968 2964 2961 2955 2954 2956 2955 2951 2949 2946 2942 2943 2944 2946 2946 2950 2948 2953 2957 2960 2965 2969 2974 2979 2983 2989 2994 2998 3002 3006 3010
2982 2978 2975 2972 2969 2966 2962 2959 2956 2953 2948 2944 2945 2944 2942 2941 2940 2939 2937 2934 2934 2933 2936 2939 2942 2943 2948 2953 2958 2963 2967 2970 2976 2979 2985 2990 2996 3000
2973 2969 2966 2962 2959 2956 2953 2950 2947 2944 2940 2936 2934 2934 2931 2930 2927 2926 2927 2926 2925 2923 2924 2927 2929 2932 2936 2940 2945 2949 2954 2960 2964 2968 2973 2977 2983 2988
2966 2962 2958 2954 2950 2947 2944 2941 2938 2935 2932 2928 2925 2923 2921 2919 2917 2916 2914 2914 2915 2913 2914 2916 2919 2922 2926 2928 2931 2936 2941 2946 2951 2955 2959 2964 2969 2975
2959 2955 2951 2947 2943 2940 2936 2933 2930 2926 2923 2919 2917 2913 2912 2909 2907 2905 2904 2904 2905 2907 2904 2910 2909 2911 2913 2916 2921 2925 2930 2934 2938 2943 2947 2952 2956 2960
2952 2949 2945 2941 2937 2933 2930 2927 2923 2919 2914 2910 2906 2904 2901 2899 2895 2894 2894 2892 2891 2898 2893 2894 2900 2902 2903 2905 2908 2913 2918 2922 2927 2931 2935 2940 2945 2949
2945 2941 2938 2934 2930 2925 2921 2918 2914 2911 2906 2902 2897 2894 2891 2889 2885 2882 2880 2879 2881 2884 2882 2879 2889 2888 2892 2896 2898 2901 2906 2910 2915 2920 2925 2928 2932 2937
2940 2935 2930 2926 2922 2917 2911 2907 2904 2901 2896 2891 2887 2883 2880 2877 2874 2870 2869 2867 2865 2870 2873 2865 2872 2875 2881 2885 2886 2890 2894 2900 2904 2909 2915 2919 2922 2926
2931 2926 2920 2916 2912 2907 2902 2897 2892 2889 2884 2882 2879 2875 2871 2867 2864 2861 2857 2854 2854 2853 2861 2859 2858 2861 2866 2871 2875 2878 2883 2887 2893 2898 2904 2910 2913 2916
2922 2917 2913 2907 2902 2898 2892 2887 2881 2877 2873 2869 2866 2864 2861 2857 2854 2851 2848 2845 2843 2842 2848 2844 2847 2853 2849 2855 2864 2868 2870 2876 2881 2888 2893 2902 2905 2910
2911 2907 2902 2897 2892 2888 2883 2877 2872 2867 2862 2858 2855 2853 2850 2847 2843 2840 2839 2835 2833 2832 2835 2836 2833 2839 2840 2842 2848 2859 2861 2865 2870 2876 2885 2892 2897 2903
2904 2899 2894 2888 2883 2879 2874 2869 2863 2857 2852 2848 2845 2841 2838 2835 2832 2830 2828 2826 2824 2824 2823 2825 2823 2827 2827 2830 2836 2845 2850 2855 2860 2867 2875 2882 2888 2893
2897 2893 2887 2880 2875 2869 2864 2859 2854 2849 2843 2839 2835 2831 2827 2825 2822 2820 2817 2816 2814 2815 2815 2815 2814 2814 2817 2820 2823 2833 2837 2843 2848 2855 2862 2868 2877 2882
2886 2881 2876 2871 2866 2861 2856 2851 2846 2841 2836 2831 2826 2822 2818 2815 2813 2811 2809 2807 2804 2804 2805 2805 2804 2802 2806 2810 2812 2820 2826 2830 2838 2844 2849 2856 2865 2872
2880 2874 2868 2862 2856 2851 2847 2843 2838 2833 2828 2823 2818 2813 2809 2807 2804 2803 2801 2799 2797 2796 2796 2795 2795 2795 2797 2800 2804 2809 2814 2817 2825 2831 2836 2842 2851 2860
2873 2867 2860 2854 2848 2843 2838 2834 2830 2825 2820 2816 2811 2806 2802 2799 2797 2796 2794 2792 2790 2789 2788 2788 2788 2788 2788 2791 2796 2798 2804 2808 2811 2817 2823 2829 2837 2847
2865 2859 2853 2847 2842 2836 2831 2826 2821 2816 2812 2808 2803 2799 2795 2792 2790 2789 2788 2786 2784 2783 2782 2782 2781 2781 2781 2784 2786 2790 2794 2798 2801 2806 2812 2818 2824 2833
2860 2854 2848 2842 2836 2830 2824 2819 2813 2808 2804 2799 2796 2792 2789 2785 2784 2783 2782 2780 2778 2777 2776 2775 2776 2774 2775 2777 2779 2782 2785 2788 2791 2795 2801 2806 2812 2820
2854 2847 2841 2836 2829 2823 2818 2812 2806 2802 2797 2793 2789 2785 2782 2780 2778 2777 2777 2775 2774 2772 2770 2770 2769 2769 2769 2770 2772 2773 2775 2780 2782 2785 2789 2795 2801 2808
2847 2842 2836 2829 2823 2817 2812 2806 2800 2795 2791 2787 2783 2780 2777 2774 2773 2772 2771 2771 2769 2767 2766 2764 2763 2763 2763 2764 2764 2766 2769 2771 2774 2777 2781 2786 2792 2799